Skip Page Navigation
NASA JPL Caltech
NASA Logo - Jet Propulsion Laboratory + View the NASA Portal
+ Center for Near-Earth Object Studies
JPL Home Earth Solar System Stars & Galaxies Technology
JPL Solar System Dynamics
BODIES ORBITS EPHEMERIDES TOOLS PHYSICAL DATA DISCOVERY FAQ SITE MAP
JPL Small-Body Database Browser
Search: [ help ]  
35279 (1996 SR)
Classification: Main-belt Asteroid          SPK-ID: 2035279
Ephemeris | Orbit Diagram | Orbital Elements | Mission Design | Physical Parameters | Discovery Circumstances ]

[ show orbit diagram ]
Orbital Elements at Epoch 2459000.5 (2020-May-31.0) TDB
Reference: JPL 24 (heliocentric ecliptic J2000)
 Element Value Uncertainty (1-sigma)   Units 
e .2042499040984515 3.551e-08  
a 2.567228198304925 1.1673e-08 au
q 2.042872085002303 9.1479e-08 au
i 4.853528549977562 3.7132e-06 deg
node 165.0099045126633 6.1762e-05 deg
peri 190.1633949414678 6.3273e-05 deg
M 264.7575681481105 1.6068e-05 deg
tp 2459397.987168492892
(2021-Jul-02.48716849)
6.8159e-05 TDB
period 1502.433084446723
4.11
1.0247e-05
2.805e-08
d
yr
n .2396113369219179 1.6342e-09 deg/d
Q 3.091584311607546 1.4057e-08 au
  Orbit Determination Parameters
   # obs. used (total)      765  
   data-arc span      10128 days (27.73 yr)  
   first obs. used      1992-09-23  
   last obs. used      2020-06-16  
   planetary ephem.      DE431  
   SB-pert. ephem.      SB431-N16  
   condition code      0  
   norm. resid. RMS      .49371  
   source      ORB  
   producer      Otto Matic  
   solution date      2020-Jun-23 20:28:56  

Additional Information
 Earth MOID = 1.03834 au 
 Jupiter MOID = 2.35176 au 
 T_jup = 3.397 
[ show covariance matrix ]

Ephemeris | Orbit Diagram | Orbital Elements | Mission Design | Physical Parameters | Discovery Circumstances ]

Physical Parameter Table
Parameter Symbol Value Units Sigma Reference Notes
absolute magnitude H 15.3   n/a MPO468170  

35279 (1996 SR)          Discovered 1996-Sep-20 by Viscome, G. R. at Rand
Reference: 20020227/Numbers.arcLast Updated: 2004-04-19

Alternate Designations
 1996 SR = 1992 SA14 
Ephemeris | Orbit Diagram | Orbital Elements | Mission Design | Physical Parameters | Discovery Circumstances ]
ABOUT SSD CREDITS/AWARDS PRIVACY/COPYRIGHT GLOSSARY LINKS
FirstGov 2020-Jul-15 06:41 UT
(server date/time)  
NASA Home Page
Site Manager:   Ryan S. Park
Webmaster  Alan B. Chamberlin